Weather History for Naples, Italy

Change the Weather History Date:

Sunday, September 29, 2013

  Actual Average Record
Temperature  
Mean Temperature 71 °F -  
Max Temperature 78 °F 71 °F 93 °F (2012)
Min Temperature 64 °F 53 °F 33 °F (2006)
Cooling Degree Days 6    
Growing Degree Days 21 (Base 50)    
Moisture  
Dew Point 64 °F    
Average Humidity 75    
Maximum Humidity 94    
Minimum Humidity 54    
Precipitation  
Precipitation 0.00 in 0.17 in - ()
Sea Level Pressure  
Sea Level Pressure 29.84 in    
Wind  
Wind Speed 3 mph ()    
Max Wind Speed 10 mph    
Max Gust Speed -    
Visibility 5.1 miles    
Events Thunderstorm    
Averages and records for this station are not official NWS values.
T = Trace of Precipitation, MM = Missing Value Source: Averaged Metar Reports

Daily Weather History Graph

Daily Weather History Graph

Search for Another Location

Airport:

Trip Planner

Search our weather history database for the weather conditions in past years. The results will help you decide how hot, cold, wet, or windy it might be!

Date:

Astronomy

Sep. 29, 2013 Rise Set
Actual Time 6:57 AM CEST 6:48 PM CEST
Civil Twilight 6:29 AM CEST 7:15 PM CEST
Nautical Twilight 5:58 AM CEST 7:47 PM CEST
Astronomical Twilight 5:25 AM CEST 8:19 PM CEST
Moon 1:20 AM CEST (9/29) 3:35 PM CEST (9/29)
Length of Visible Light 12h 45m
Length of Day
11h 50m
Waning Crescent, 29% of the Moon is Illuminated
Sep 29
Waning Crescent
Oct 5
New
Oct 12
First Quarter
Oct 19
Full
Oct 27
Last Quarter

Hourly Weather History & Observations

Time (CEST) Temp. Dew Point Humidity Pressure Visibility Wind Dir Wind Speed Gust Speed Precip Events Conditions
12:20 AM 69.8 °F 64.4 °F 83% 29.95 in 6.2 mi East 1.2 mph - N/A   Partly Cloudy
12:50 AM 68.0 °F 64.4 °F 88% 29.92 in 5.0 mi Calm Calm - N/A   Partly Cloudy
1:20 AM 66.2 °F 62.6 °F 88% 29.92 in 5.0 mi Calm Calm - N/A   Partly Cloudy
1:50 AM 66.2 °F 62.6 °F 88% 29.92 in 5.0 mi North 2.3 mph - N/A   Partly Cloudy
2:20 AM 66.2 °F 64.4 °F 94% 29.92 in 5.0 mi Variable 1.2 mph - N/A   Partly Cloudy
2:50 AM 66.2 °F 62.6 °F 88% 29.92 in 5.0 mi Variable 2.3 mph - N/A   Partly Cloudy
3:20 AM 66.2 °F 62.6 °F 88% 29.92 in 5.0 mi North 1.2 mph - N/A   Partly Cloudy
3:50 AM 66.2 °F 62.6 °F 88% 29.92 in 3.7 mi Variable 2.3 mph - N/A   Mostly Cloudy
4:20 AM 66.2 °F 62.6 °F 88% 29.89 in 3.7 mi Variable 1.2 mph - N/A   Mostly Cloudy
4:50 AM 66.2 °F 62.6 °F 88% 29.89 in 3.7 mi Calm Calm - N/A   Mostly Cloudy
5:20 AM 66.2 °F 62.6 °F 88% 29.89 in 3.7 mi NNE 2.3 mph - N/A   Mostly Cloudy
5:50 AM 66.2 °F 62.6 °F 88% 29.89 in 3.7 mi Calm Calm - N/A   Mostly Cloudy
6:20 AM - - N/A% - 3.7 mi NNE 2.3 mph - N/A   Unknown
6:50 AM 66.2 °F 62.6 °F 88% 29.89 in 2.5 mi NNE 2.3 mph - N/A   Partly Cloudy
7:20 AM 64.4 °F 60.8 °F 88% 29.89 in 0.2 mi North - - N/A   Scattered Clouds
7:50 AM 64.4 °F 60.8 °F 88% 29.89 in 2.5 mi ENE 2.3 mph - N/A   Scattered Clouds
8:20 AM 66.2 °F 62.6 °F 88% 29.89 in 2.5 mi Calm Calm - N/A   Scattered Clouds
8:50 AM 69.8 °F 64.4 °F 83% 29.89 in 3.1 mi Variable 1.2 mph - N/A   Scattered Clouds
9:20 AM 71.6 °F 64.4 °F 78% 29.89 in 3.1 mi ENE 3.5 mph - N/A   Scattered Clouds
9:50 AM 71.6 °F 64.4 °F 78% 29.89 in 3.1 mi ENE 3.5 mph - N/A   Scattered Clouds
10:20 AM 73.4 °F 64.4 °F 73% 29.86 in 3.1 mi East 3.5 mph - N/A   Scattered Clouds
10:50 AM 77.0 °F 64.4 °F 65% 29.89 in 6.2 mi Variable 2.3 mph - N/A   Scattered Clouds
11:20 AM 77.0 °F 60.8 °F 57% 29.86 in 6.2 mi WSW 5.8 mph - N/A   Scattered Clouds
11:50 AM 77.0 °F 62.6 °F 61% 29.86 in 6.2 mi SW 8.1 mph - N/A   Scattered Clouds
12:20 PM 78.8 °F 62.6 °F 57% 29.86 in 6.2 mi SW 8.1 mph - N/A   Mostly Cloudy
12:50 PM 77.0 °F 62.6 °F 61% 29.86 in 6.2 mi SSW 8.1 mph - N/A   Mostly Cloudy
1:20 PM 77.0 °F 64.4 °F 65% 29.86 in 6.2 mi South 6.9 mph - N/A   Mostly Cloudy
1:50 PM 77.0 °F 64.4 °F 65% 29.83 in 6.2 mi SSW 5.8 mph - N/A   Mostly Cloudy
2:20 PM 78.8 °F 60.8 °F 54% 29.83 in 6.2 mi SSW 5.8 mph - N/A   Mostly Cloudy
2:50 PM 77.0 °F 60.8 °F 57% 29.80 in 6.2 mi SW 5.8 mph - N/A   Mostly Cloudy
3:20 PM 77.0 °F 62.6 °F 61% 29.80 in 6.2 mi SW 9.2 mph - N/A   Mostly Cloudy
3:50 PM 77.0 °F 62.6 °F 61% 29.80 in 6.2 mi SSW 8.1 mph - N/A   Mostly Cloudy
4:20 PM 77.0 °F 62.6 °F 61% 29.80 in 6.2 mi SW 9.2 mph - N/A   Mostly Cloudy
4:50 PM 77.0 °F 62.6 °F 61% 29.77 in 6.2 mi South 8.1 mph - N/A   Mostly Cloudy
5:20 PM 77.0 °F 64.4 °F 65% 29.77 in 6.2 mi Variable 4.6 mph - N/A   Mostly Cloudy
5:50 PM 77.0 °F 62.6 °F 61% 29.80 in 6.2 mi SSW 5.8 mph - N/A   Scattered Clouds
6:20 PM 77.0 °F 64.4 °F 65% 29.77 in 6.2 mi South 4.6 mph - N/A   Scattered Clouds
6:50 PM 75.2 °F 66.2 °F 73% 29.77 in 6.2 mi South 4.6 mph - N/A   Scattered Clouds
7:20 PM 75.2 °F 66.2 °F 73% 29.77 in 6.2 mi SSW 5.8 mph - N/A   Scattered Clouds
7:50 PM 75.2 °F 64.4 °F 69% 29.77 in 6.2 mi South 5.8 mph - N/A   Partly Cloudy
8:20 PM 75.2 °F 64.4 °F 69% 29.77 in 6.2 mi South 5.8 mph - N/A   Partly Cloudy
8:50 PM 75.2 °F 66.2 °F 73% 29.77 in 6.2 mi South 9.2 mph - N/A   Partly Cloudy
9:20 PM 75.2 °F 66.2 °F 73% 29.77 in 6.2 mi South 5.8 mph - N/A   Mostly Cloudy
9:50 PM 75.2 °F 68.0 °F 78% 29.77 in 6.2 mi South 9.2 mph - N/A Thunderstorm Scattered Clouds
10:20 PM 73.4 °F 66.2 °F 78% 29.77 in 6.2 mi South 9.2 mph - N/A Thunderstorm Scattered Clouds
10:50 PM 73.4 °F 66.2 °F 78% 29.74 in 6.2 mi South 6.9 mph - N/A   Partly Cloudy
11:20 PM 73.4 °F 66.2 °F 78% 29.77 in 6.2 mi South 10.4 mph - N/A   Partly Cloudy
11:50 PM 75.2 °F 68.0 °F 78% 29.77 in 6.2 mi SSW 6.9 mph - N/A   Mostly Cloudy